Tracking 29892 objects as of 21-Nov-2024
HD Live streaming from Space Station
objects crossing your sky now

FENGYUN 1C DEB

Track FENGYUN 1C DEB now!
10-day predictions


NORAD ID: 32172
Int'l Code: 1999-025CTS
Perigee: 507.5 km
Apogee: 624.9 km
Inclination: 99.1 °
Period: 95.8 minutes
Semi major axis: 6937 km
RCS: 0.0072 m2 (small)
Launch date: May 10, 1999
Source: People's Republic of China (PRC)
Launch site: Taiyaun Space Center, China (TSC)

Note: This is SATELLITE DEBRIS
Your satellite tracking list
Your tracking list is empty




NASA's NSSDC Master Catalog

Two Line Element Set (TLE):
1 32172U 99025CTS 24324.34016324  .00024996  00000-0  17407-2 0  9999
2 32172  99.0822 346.1257 0084599 147.1616 213.4901 15.02534743923453
Source of the keplerian elements: AFSPC